Flag for Canada Weather past 2 weeks in Red Deer, Alberta, Canada

18 °F

Scattered clouds.

Feels Like: 8 °F
Forecast: -1 / 24 °F
Wind: 7 mph from Northwest

Location: Red Deer

Current Time: Nov 25, 2015 at 5:28:42 PM

Latest Report: Nov 25, 2015 at 4:00 PM

Visibility: 15 mi

Pressure: 30.45 "Hg (27.26 "Hg at 857m altitude)

Humidity: 62%

Dew point: 7 °F

Location of Red DeerLocation

Historic Weather in Red Deer — Graph


Red Deer temperature yesterday

Maximum temperature yesterday: 23 °F (at 12:00 AM)
Minimum temperature yesterday: -8 °F (at 11:00 PM)
Average temperature yesterday: 14 °F

Past Weeks' High & Low Weather Summary

High52 °F (Nov 13, 1:00 PM)100% (Nov 13, 9:00 PM)30.53 "Hg (Nov 13, 9:00 PM)
Low-15 °F (Nov 25, 5:00 AM)28% (Nov 12, 2:00 PM)29.09 "Hg (Nov 17, 5:00 PM)
Average25 °F73%29.92 "Hg
* Reported Nov 10 4:00 PM — Nov 25 4:00 PM, Red Deer, Weather by CustomWeather, © 2015

Note: Actual official high and low records may vary slightly from our data, if they occured in-between our weather recording intervals... More about our weather records


Red Deer weather history for previous 24 hours

Time TempWeatherWind HumidityBarometerVisibility
4:00 PM
Wed, Nov 25
18 °FScattered clouds.7 mph62%30.45 "Hg15 mi
3:00 PM16 °FPartly sunny.7 mph67%30.44 "Hg15 mi
2:00 PM12 °FScattered clouds.3 mph85%30.45 "Hg15 mi
1:00 PM7 °FPassing clouds.7 mph85%30.45 "Hg15 mi
12:00 PM3 °FPassing clouds.7 mph85%30.49 "Hg15 mi
11:00 AM0 °FSunny.6 mph84%30.50 "Hg15 mi
10:00 AM-6 °FSunny.7 mph77%30.53 "Hg15 mi
9:00 AM-11 °FSunny.7 mph76%30.52 "Hg15 mi
8:00 AM-9 °FClear.6 mph77%30.50 "Hg15 mi
7:00 AM-11 °FClear.5 mph76%30.51 "Hg15 mi
6:00 AM-13 °FClear.5 mph76%30.50 "Hg15 mi
5:00 AM-15 °FIce fog.6 mph76%30.51 "Hg6 mi
4:00 AM-13 °FClear.5 mph76%30.51 "Hg15 mi
3:00 AM-11 °FClear.5 mph76%30.50 "Hg15 mi
2:48 AM-13 °FClear.6 mph76%30.49 "Hg15 mi
2:00 AM-13 °FIce fog.6 mph83%30.50 "Hg1 mi
1:00 AM-4 °FIce fog.6 mph77%30.48 "Hg1 mi
12:50 AM-4 °FIce fog.7 mph84%30.47 "Hg1 mi
11:00 PM
Tue, Nov 24
-8 °FPassing clouds.2 mph84%30.49 "Hg15 mi
10:00 PM-4 °FPassing clouds.3 mph77%30.47 "Hg15 mi
9:00 PM5 °FPassing clouds.5 mph85%30.46 "Hg15 mi
8:00 PM7 °FFrigid.2 mph85%30.45 "Hg15 mi
7:00 PM9 °FPassing clouds.5 mph78%30.45 "Hg15 mi
6:00 PM10 °FOvercast.9 mph79%30.44 "Hg15 mi
5:00 PM9 °FPassing clouds.9 mph78%30.44 "Hg15 mi
Weather by CustomWeather, © 2015

See weather overviewHow to use our weather pages